Regional Weather Roundup
Issued by NWS

Home | Current Version | Previous Version | Text Only | Print | Product List | Glossary Off
Versions: 1 2 3 4 5 6 7 8 9 10 11 12 13 14 15 16 17 18 19 20 21 22 23 24 25 26 27 28 29 30 31 32 33 34 35 36 37 38 39 40 41 42 43 44 45 46 47 48 49 50

000
ASUS43 KLOT 280921
RWRIL

ILLINOIS REGIONAL WEATHER ROUNDUP
NATIONAL WEATHER SERVICE CHICAGO/ROMEOVILLE IL
400 AM CDT THU MAY 28 2015

NOTE: "FAIR" INDICATES FEW OR NO CLOUDS BELOW 12,000 FEET WITH NO
SIGNIFICANT WEATHER AND/OR OBSTRUCTIONS TO VISIBILITY.

* THESE STATIONS ARE NOT UNDER NWS QUALITY CONTROL. THEY ALSO MAY NOT
  REPORT WEATHER SUCH AS PRECIPITATION OR FOG.

ILZ001-002-007-009-015-016-024-281000-
NORTHWEST ILLINOIS

CITY           SKY/WX    TMP DP  RH WIND       PRES   REMARKS
MOLINE         CLEAR     63  55  75 CALM      30.15R
STERLING*      CLEAR     55  54  94 CALM      30.16R
SAVANNA*       CLEAR     59  57  91 CALM      30.15R
$$

ILZ003-004-008-010-011-017-018-281000-
NORTH CENTRAL ILLINOIS

CITY           SKY/WX    TMP DP  RH WIND       PRES   REMARKS
ROCKFORD       CLEAR     56  53  90 S3        30.16S
FREEPORT*      CLEAR     61  55  82 S7        30.16S
ROCHELLE*      CLEAR     56  54  94 CALM      30.16S
DE KALB*       CLEAR     55  51  87 S5        30.17S
PERU*          CLEAR     60  57  89 S3        30.16F
$$

ILZ005-006-012>014-019>023-281000-
NORTHEAST ILLINOIS

CITY           SKY/WX    TMP DP  RH WIND       PRES   REMARKS
CHICAGO-OHARE  PTCLDY    57  54  89 CALM      30.16S
CHICAGO-MIDWAY CLEAR     62  56  80 CALM      30.15F
AURORA         CLEAR     54  51  90 CALM      30.16F
LANSING*       CLEAR     54  52  93 CALM      30.17S
JOLIET*        CLEAR     56  55  99 CALM      30.16S FOG
WAUKEGAN       CLEAR     59  54  83 SW3       30.15S
DUPAGE AIRPORT CLEAR     55  52  89 CALM      30.15F
KANKAKEE*      CLEAR     55  53  95 S3        30.18R
WHEELING       CLEAR     54  52  93 CALM      30.17F
MORRIS*        CLEAR     57  55  93 CALM      30.13S
ROMEOVILLE*    CLEAR     56  53  90 CALM      30.16S
NORTHERLY ISL    N/A     60  54  80 CALM        N/A
$$

LMZ740>746-281000-
SOUTHERN LAKE MICHIGAN

STATION/POSITION SKY/WX   TEMP    WIND        PRES    VSBY  WAVE
                          AIR SEA DIR/SP/G                  HT/PER
                          (F)     (DEG/KT/KT) (MB)    (MI)  (FT/S)
SOUTHERN BUOY              44 38  200/ 10/ 10 1021.9R         0
HARRISON CRIB              64     180/  8/  9   N/A
BURNHAM HARBOR             60      CALM  /  5   N/A
CALUMET HARBOR             60     170/  1/  2   N/A
BURNS HARBOR               59     190/  6/  6 1022.0S
MICHIGAN CITY              58     130/  5/  6   N/A
MICHIGAN CITY 6N           56 53  190/  4/  4   N/A           0
ST. JOSEPH                 56 55  150/  4/  4   N/A           0
$$

ILZ025>027-034>036-040-047-049-050-058-095>099-281000-
WEST-CENTRAL ILLINOIS

CITY           SKY/WX    TMP DP  RH WIND       PRES   REMARKS
QUINCY         CLEAR     62  55  77 SE5       30.14S
GALESBURG*     CLEAR     56  54  94 CALM      30.15S
MACOMB*        PTCLDY    57  57  97 CALM      30.17S
JACKSONVILLE*  PTCLDY    59  56  92 CALM      30.15S
PITTSFIELD*    PTCLDY    59  57  91 CALM      30.15S
$$

ILZ028>032-037-038-041>044-048-051>054-059>061-281000-
CENTRAL ILLINOIS

CITY           SKY/WX    TMP DP  RH WIND       PRES   REMARKS
PONTIAC        CLEAR     57  56  95 CALM      30.17F
BLOOMINGTON    CLEAR     60  55  83 E6        30.18F
DECATUR        FAIR      58  53  84 E3        30.17S
PEORIA         CLEAR     60  56  86 CALM      30.16S
LACON*         CLEAR     56  54  91 CALM      30.15F
LINCOLN*       CLEAR     58  55  88 CALM      30.15R
SPRINGFIELD    PTCLDY    58  55  90 CALM      30.16S
TAYLORVILLE    PTCLDY    59  55  88 E3        30.15F
$$

ILZ033-039-045-046-055>057-062-063-281000-
EAST-CENTRAL ILLINOIS

CITY           SKY/WX    TMP DP  RH WIND       PRES   REMARKS
CHAMPAIGN      CLEAR     57  52  83 E6        30.18R
DANVILLE*      PTCLDY    56  54  94 CALM      30.15F
RANTOUL*       PTCLDY    60  55  83 CALM      30.18R
PARIS*         CLEAR     58  56  93 CALM      30.18R
$$

ILZ079-100>102-281000-
SOUTHWEST ILLINOIS

CITY           SKY/WX    TMP DP  RH WIND       PRES   REMARKS
ALTON          PTCLDY    59  59 100 CALM      30.15F
BELLEVILLE     MOCLDY    61  61 100 NE3       30.12F
CAHOKIA*       PTCLDY    61  58  90 CALM      30.13F
SPARTA*        CLOUDY    69  68  98 CALM      30.14S
$$

ILZ064>066-069>071-074>076-080>082-084>086-088>090-092>094-281000-
SOUTH-CENTRAL ILLINOIS

CITY           SKY/WX    TMP DP  RH WIND       PRES   REMARKS
CARBONDALE     MOCLDY    68  66  93 CALM      30.13F
CAIRO*         PTCLDY    66  66 100 CALM      30.14S FOG
EFFINGHAM*     CLEAR     58  56  91 CALM      30.17F
MARION         MOCLDY    68  66  94 CALM      30.15S FOG
MT. VERNON       N/A     63  57  82 CALM      30.15S VSB 1/2
CENTRALIA*     MOCLDY    60  58  92 CALM      30.15S
SALEM*         MOCLDY    63  60  88 CALM      30.15S
METROPOLIS*    MOCLDY    65  65 100 CALM      30.14S FOG
$$

ILZ067-068-072-073-078-083-087-091-281000-
SOUTHEAST ILLINOIS

CITY           SKY/WX    TMP DP  RH WIND       PRES   REMARKS
LAWRENCEVILLE  PTCLDY    65  63  93 CALM      30.16R
FLORA*         PTCLDY    62  60  93 CALM      30.16S
FAIRFIELD*     MOCLDY    66  66  99 CALM      30.13F FOG
HARRISBURG*    MOCLDY    65  65 100 CALM      30.15F FOG
ROBINSON*      PTCLDY    63  58  83 CALM      30.16R
CARMI*         MOCLDY    66  61  82 CALM      30.14S
$$

ABBREVIATIONS USED IN REMARKS
   TC - TEMPERATURE IN CELSIUS
  WCI - WIND CHILL INDEX
   HX - HEAT INDEX
  VSB - VISIBILITY
$$



USA.gov is the U.S. government's official web portal to all federal, state and local government web resources and services.